Location: Bucquoy
(50.1391°N, 2.7097°E)
Time: 23:55:36
(UTC+00:00)

Helios 1B rocket - Pass Details

Date: 06 May 2021
Orbit: 573 x 583 km, 98.2° (Epoch: 21 June)

Event Time Altitude Azimuth Distance (km) Brightness Sun altitude
Rises 00:40:29 0° 25° (NNE) 2,819 7.4 -22.2°
Reaches altitude 10° 00:43:00 10° 39° (NE) 1,914 6.0 -22.1°
Maximum altitude 00:46:23 24° 94° (E) 1,238 4.2 -22.0°
Enters shadow 00:47:23 22° 116° (ESE) 1,311 4.1 -21.9°
